CSG-1 (44873 NORAD) Tracking and Keplerian Element Data

This shows tracking and keplerian element data for the satellite.

Feedback or suggestion? Click here.




ElementValue
Catalog44873
NameCSG-1
Epoch Orbit3058
Epoch Day193.84071984
Epoch Year2020
RAAN16.6513
Inclination97.8857
Eccentricity0.0001448
Argument of Perigee86.8942
Mean Anonmoly273.2438
Mean Motion14.82153795
Decay Rate-7.2E-07
L11 44873U 19092A 20193.84071984 -.00000072 00000-0 -24633-5 0 9997
L22 44873 97.8857 16.6513 0001448 86.8942 273.2438 14.82153795 30588

Live tracking and technical data element details for CSG-1 (NORAD 44873). CSG-1 can be tracked NOW for your location showing map with azimuth and elevation plus other details from your city location.

Track the satellite on the map from your city or location and see movement details for azimuth, elevation, latitude, longitude, range, height, and movement on the map or in text.







IsCatalogInMostPopularTable: catalog: 44873, numindb: 47
Update: records affected: 1



GetName: 44873 CSG-1

Hit Count: updated at: Mon, 13 Jul 2020 05:53:32 GMT